Regional Weather Roundup
Issued by NWS

Home | Current Version | Previous Version | Text Only | Print | Product List | Glossary Off
Versions: 1 2 3 4 5 6 7 8 9 10 11 12 13 14 15 16 17 18 19 20 21 22 23 24 25 26 27 28

000
ASUS45 KPSR 171210
RWRAZ

ARIZONA HOURLY REGIONAL WEATHER ROUNDUP
NATIONAL WEATHER SERVICE PHOENIX AZ
500 AM MST WED JAN 17 2018

NOTE: FAIR INDICATES FEW OR NO CLOUDS BELOW 12,000 FEET WITH NO
SIGNIFICANT WEATHER AND/OR OBSTRUCTIONS TO VISIBILITY.

AZZ001>003-036-171300-
NORTHWEST ARIZONA

CITY           SKY/WX    TMP DP  RH WIND       PRES   REMARKS
BULLHEAD CITY  CLEAR     54  39  58 CALM      30.18S
KINGMAN        CLEAR     37  31  78 E6        30.24F WCI  32
6HR MIN TEMP:  36; 6HR MAX TEMP:  43;

$$

AZZ004>008-015-016-018-171300-
NORTH CENTRAL ARIZONA

CITY           SKY/WX    TMP DP  RH WIND       PRES   REMARKS
GRAND CANYON   CLEAR     21  18  88 CALM      30.31F
6HR MIN TEMP:  21; 6HR MAX TEMP:  26;

WILLIAMS       CLEAR     27  21  80 S8        30.28S WCI  18
PRESCOTT       CLEAR     31  26  82 S3        30.26F
6HR MIN TEMP:  31; 6HR MAX TEMP:  41;

FLAGSTAFF      CLEAR     21  18  88 NE3       30.30F
6HR MIN TEMP:  20; 6HR MAX TEMP:  26;

PAYSON         CLEAR     32  16  51 SE5       30.28F WCI  27
PAGE           CLEAR     36  19  50 CALM      30.32S
6HR MIN TEMP:  35; 6HR MAX TEMP:  42;

$$

AZZ009>014-017-171300-
NORTHEAST ARIZONA

CITY           SKY/WX    TMP DP  RH WIND       PRES   REMARKS
WINSLOW        PTCLDY    22  14  71 CALM      30.32F
6HR MIN TEMP:  21; 6HR MAX TEMP:  32;

SAINT JOHNS    PTCLDY    23  19  85 CALM      30.28S
6HR MIN TEMP:  23; 6HR MAX TEMP:  32;

WINDOW ROCK    MOCLDY    22  17  81 NE5       30.32S WCI  16
6HR MIN TEMP:  16; 6HR MAX TEMP:  22;

SHOW LOW       CLEAR     27  21  80 CALM      30.31R
$$

AZZ540-542>544-546-548-171300-
GREATER PHOENIX AREA

CITY           SKY/WX    TMP DP  RH WIND       PRES   REMARKS
PHOENIX        PTCLDY    54  25  32 SE7       30.18R
6HR MIN TEMP:  54; 6HR MAX TEMP:  59;

BUCKEYE        PTCLDY    48  28  46 E12       30.17S
LUKE AFB       CLEAR     48  33  57 CALM      30.17S
6HR MIN TEMP:  47; 6HR MAX TEMP:  53;

DEER VALLEY    CLEAR     51  27  39 E6        30.17S
6HR MIN TEMP:  51; 6HR MAX TEMP:  57;

SCOTTSDALE     CLEAR     50  29  44 CALM      30.19R
6HR MIN TEMP:  49; 6HR MAX TEMP:  56;

MESA-GATEWAY   MOCLDY    46  25  42 SE6       30.20S
$$

AZZ539-553-171300-
SOUTHWEST MARICOPA COUNTY AND PINAL COUNTY

CITY           SKY/WX    TMP DP  RH WIND       PRES   REMARKS
CASA GRANDE    NOT AVBL
GILA BEND      FAIR      55  20  25 E21       30.13F
6HR MIN TEMP:  55; 6HR MAX TEMP:  60;

$$

AZZ503-504-507>509-171300-
SOUTHEAST ARIZONA

CITY           SKY/WX    TMP DP  RH WIND       PRES   REMARKS
TUCSON         MOCLDY    50  19  29 SE20G31   30.19S
6HR MIN TEMP:  50; 6HR MAX TEMP:  55;

DAVIS-MONTHAN  MOCLDY    47  18  31 SE20G28   30.18S
6HR MIN TEMP:  47; 6HR MAX TEMP:  53;

NOGALES        MOCLDY    42  20  41 NE10      30.19F
6HR MIN TEMP:  41; 6HR MAX TEMP:  50;

SIERRA VISTA   MOCLDY    31  15  51 SE3       30.26F
6HR MIN TEMP:  31; 6HR MAX TEMP:  39;

DOUGLAS        PTCLDY    28  16  60 CALM      30.29F
6HR MIN TEMP:  26; 6HR MAX TEMP:  38;

SAFFORD        CLEAR     34  14  43 SE10      30.35F WCI  26
6HR MIN TEMP:  33; 6HR MAX TEMP:  40;

$$

AZZ532-171300-
SOUTHWEST ARIZONA

CITY           SKY/WX    TMP DP  RH WIND       PRES   REMARKS
YUMA           CLEAR     57  38  48 NE7       30.11F
6HR MIN TEMP:  55; 6HR MAX TEMP:  63;

$$

CAZ041-043-047-048-061-525>527-560>570-171300-
SOUTHERN CALIFORNIA

CITY           SKY/WX    TMP DP  RH WIND       PRES   REMARKS
DOWNTOWN L.A.  CLEAR     54  51  90 CALM      30.11F
6HR MIN TEMP:  54; 6HR MAX TEMP:  59;

L.A. AIRPORT   PTCLDY    56  56 100 CALM      30.12F FOG
6HR MIN TEMP:  55; 6HR MAX TEMP:  62;

SAN DIEGO      MOCLDY    56  52  86 CALM      30.13S FOG
6HR MIN TEMP:  55; 6HR MAX TEMP:  60;

BURBANK        CLEAR     51  47  86 CALM      30.11F
6HR MIN TEMP:  51; 6HR MAX TEMP:  59;

ONTARIO        MOCLDY    53  42  66 NE5       30.12F
6HR MIN TEMP:  51; 6HR MAX TEMP:  60;

RIVERSIDE      CLEAR     51  45  79 NE7       30.13S
6HR MIN TEMP:  50; 6HR MAX TEMP:  58;

PALM SPRINGS   CLEAR     56  43  61 N5        30.14F
6HR MIN TEMP:  55; 6HR MAX TEMP:  63;

IMPERIAL       CLEAR     50  33  52 W7        30.12S
6HR MIN TEMP:  49; 6HR MAX TEMP:  58;

BLYTHE         CLEAR     48  36  63 W3        30.15F
6HR MIN TEMP:  47; 6HR MAX TEMP:  59;

NEEDLES        CLEAR     49  38  65 S3        30.18S
6HR MIN TEMP:  49; 6HR MAX TEMP:  59;

$$

NVZ020-UTZ003-171300-
SOUTHERN NEVADA-UTAH

CITY           SKY/WX    TMP DP  RH WIND       PRES   REMARKS
LAS VEGAS      PTCLDY    47  38  71 S5        30.23S
6HR MIN TEMP:  47; 6HR MAX TEMP:  53;

SALT LAKE CITY PTCLDY    34  27  75 CALM      30.36R
6HR MIN TEMP:  33; 6HR MAX TEMP:  39;

$$

NMZ009-TXZ055-171300-
NEW MEXICO-WEST TEXAS

CITY           SKY/WX    TMP DP  RH WIND       PRES   REMARKS
ALBUQUERQUE    PTCLDY    18  12  77 CALM      30.37F
6HR MIN TEMP:  17; 6HR MAX TEMP:  27;

EL PASO        PTCLDY    23   6  48 NE6       30.41F WCI  16
6HR MIN TEMP:  23; 6HR MAX TEMP:  28;

$$


........................KEY........................
SKY/WX - SKY CONDITION/WEATHER
TMP    - TEMPERATURE IN FAHRENHEIT
DP     - DEW POINT IN FAHRENHEIT
RH     - RELATIVE HUMIDITY IN PERCENT
WIND   - DIRECTION AND SPEED IN MILES PER HOUR (MPH)
VRB    - VARIABLE WIND DIRECTION
PRES   - MEAN SEA LEVEL PRESSURE IN INCHES OF MERCURY
         F - FALLING PRESSURE   R - RISING PRESSURE
         S - STEADY PRESSURE
VSB    - VISIBILITY IN MILES
HX     - HEAT INDEX IN FAHRENHEIT
WCI    - WIND CHILL INDEX IN FAHRENHEIT
TC     - TEMPERATURE IN CELSIUS WHICH IS ALSO KNOWN AS
         TEMPERATURE IN CENTIGRADE
AFB    - AIR FORCE BASE
         LUKE AFB IS LUKE AIR FORCE BASE
         DAVIS-MONTHAN IS DAVIS-MONTHAN AIR FORCE BASE
NAS    - NAVAL AIR STATION
         EL CENTRO NAS IS EL CENTRO NAVAL AIR STATION
N/A    - NOT AVAILABLE





USA.gov is the U.S. government's official web portal to all federal, state and local government web resources and services.